KI5KMR-13 Weather Reports


time (UTC)temp
C
wind
direction
speed
KPH
gust
KPH
rain 1hr
cm
rain 24hr
cm
rain mn
cm
humidity
%
barometer
mb
20260509174016 29 113 1.6 6.4 0.00 0.00 0.00 66 1009.1
20260509173017 31 0.0 3.2 0.00 0.00 0.00 64 1009.6
20260509172016 30 0.0 4.8 0.00 0.00 0.00 67 1009.7
20260509171016 29 113 1.6 9.7 0.00 0.00 0.00 68 1009.9
20260509170017 28 0.0 4.8 0.00 0.00 0.00 72 1009.7
20260509165016 28 113 3.2 8.0 0.00 0.00 0.00 73 1009.5
20260509164017 28 113 1.6 4.8 0.00 0.00 0.00 76 1009.7
20260509163016 27 113 3.2 11.3 0.00 0.00 0.00 76 1009.7
20260509162016 26 113 1.6 11.3 0.00 0.00 0.00 82 1009.7
20260509161016 25 113 3.2 12.9 0.00 0.00 0.00 84 1009.7
20260509160036 25 113 1.6 9.7 0.00 0.00 0.00 86 1009.7
20260509155056 24 113 1.6 4.8 0.00 0.00 0.00 88 1009.8
20260509154017 24 0.0 8.0 0.00 0.00 0.00 89 1009.7
20260509153016 25 113 1.6 9.7 0.00 0.00 0.00 88 1009.6
20260509152016 25 113 1.6 6.4 0.00 0.00 0.00 89 1009.2
20260509151016 25 113 1.6 8.0 0.00 0.00 0.00 89 1009.2
20260509150016 25 113 1.6 6.4 0.00 0.00 0.00 88 1009.2
20260509145017 25 113 1.6 6.4 0.00 0.00 0.00 89 1009.2
20260509144016 25 113 1.6 6.4 0.00 0.00 0.00 88 1009.1
20260509143036 25 113 1.6 8.0 0.00 0.00 0.00 89 1008.9
20260509142057 24 113 1.6 4.8 0.00 0.00 0.00 90 1008.7
20260509141016 23 0.0 3.2 0.00 0.00 0.00 92 1008.3
20260509140038 23 0.0 6.4 0.00 0.00 0.00 94 1008.3
20260509135017 22 113 1.6 6.4 0.00 0.00 0.00 96 1008.2
20260509134016 22 0.0 3.2 0.00 0.00 0.00 97 1008.3
20260509133016 22 0.0 3.2 0.00 0.00 0.00 97 1008.4
20260509132016 22 113 1.6 6.4 0.00 0.00 0.00 97 1008.4
20260509131016 22 0.0 4.8 0.00 0.00 0.00 97 1008.8
20260509130016 21 0.0 0.0 0.00 0.00 0.00 97 1009.3
20260509125017 21 0.0 0.0 0.00 0.00 0.00 97 1009.2
20260509124037 21 0.0 0.0 0.00 0.00 0.00 97 1009.1
20260509123016 21 0.0 0.0 0.00 0.00 0.00 97 1008.8
20260509122016 21 0.0 0.0 0.00 0.00 0.00 97 1008.8
20260509121016 21 0.0 0.0 0.00 0.00 0.00 97 1008.9
20260509120016 21 0.0 0.0 0.00 0.00 0.00 97 1008.9
20260509115017 21 0.0 0.0 0.00 0.00 0.00 96 1009.1